Regional Weather Roundup
Issued by NWS

Home | Current Version | Previous Version | Graphics & Text | Print | Product List | Glossary On
Versions: 1 2 3 4 5 6 7 8 9 10 11 12 13 14 15 16 17 18 19 20 21 22 23 24 25 26 27 28
000
ASUS45 KPSR 301810
RWRAZ

ARIZONA HOURLY REGIONAL WEATHER ROUNDUP
NATIONAL WEATHER SERVICE PHOENIX AZ
1100 AM MST SAT APR 30 2016

NOTE: FAIR INDICATES FEW OR NO CLOUDS BELOW 12,000 FEET WITH NO
SIGNIFICANT WEATHER AND/OR OBSTRUCTIONS TO VISIBILITY.

AZZ001>003-036-301900-
NORTHWEST ARIZONA

CITY           SKY/WX    TMP DP  RH WIND       PRES   REMARKS
BULLHEAD CITY  PTSUNNY   64  45  48 N22G28    29.75S
KINGMAN        TSTM      51  43  74 S9        29.78R
6HR MIN TEMP:  50; 6HR MAX TEMP:  60; 6HR PCP:  0.06;

$$

AZZ004>008-015-016-018-301900-
NORTH CENTRAL ARIZONA

CITY           SKY/WX    TMP DP  RH WIND       PRES   REMARKS
GRAND CANYON   CLOUDY    39  36  89 NE8       29.89S WCI  33
6HR MIN TEMP:  37; 6HR MAX TEMP:  43; 6HR PCP:  0.22;

WILLIAMS       CLOUDY    41  37  87 E10       29.94F
PRESCOTT       CLOUDY    54  33  45 SE12      29.80F
6HR MIN TEMP:  46; 6HR MAX TEMP:  55; 6HR PCP: TRACE;

FLAGSTAFF      PTSUNNY   45  36  70 SW12      29.87F
6HR MIN TEMP:  36; 6HR MAX TEMP:  45; 6HR PCP:  0.02;

PAYSON         CLOUDY    55  36  47 VRB5      29.86F
PAGE           LGT RAIN  50  45  83 NW5       29.87S
6HR MIN TEMP:  48; 6HR MAX TEMP:  51; 6HR PCP:  0.04;

$$

AZZ009>014-017-301900-
NORTHEAST ARIZONA

CITY           SKY/WX    TMP DP  RH WIND       PRES   REMARKS
WINSLOW        LGT RAIN  54  39  57 NE5       29.82F
6HR MIN TEMP:  45; 6HR MAX TEMP:  60; 6HR PCP:  0.06;

SAINT JOHNS    CLOUDY    58  34  40 N7        29.85F
6HR MIN TEMP:  41; 6HR MAX TEMP:  58;

SHOW LOW       PTSUNNY   52  28  40 S12G17    29.88F
$$

AZZ023-301900-
GREATER PHOENIX AREA

CITY           SKY/WX    TMP DP  RH WIND       PRES   REMARKS
PHOENIX        PTSUNNY   77  34  21 SE12      29.68F
6HR MIN TEMP:  63; 6HR MAX TEMP:  78;

BUCKEYE        MOSUNNY   75  36  23 E8        29.70F
GLENDALE       PTSUNNY   75  36  23 E9G17     29.70F
LUKE AFB       PTSUNNY   76  37  24 SE10      29.67F
6HR MIN TEMP:  60; 6HR MAX TEMP:  76;

DEER VALLEY    CLOUDY    73  36  25 SE14      29.69F
6HR MIN TEMP:  60; 6HR MAX TEMP:  73;

SCOTTSDALE     CLOUDY    74  33  22 SE12      29.71F
6HR MIN TEMP:  61; 6HR MAX TEMP:  74;

MESA-FALCON    MOSUNNY  N/A N/A N/A SE15      29.69F
MESA-GATEWAY   PTSUNNY   75  30  19 S13G18    29.72F
CHANDLER       PTSUNNY   77  32  19 SE15      29.70F
$$

AZZ027-028-301900-
SOUTHWEST MARICOPA COUNTY AND PINAL COUNTY

CITY           SKY/WX    TMP DP  RH WIND       PRES   REMARKS
CASA GRANDE    MOSUNNY   79  32  18 SE10G21   29.72F
6HR MIN TEMP:  54; 6HR MAX TEMP:  79;

GILA BEND      PTSUNNY   80  30  16 SW23      29.65F
6HR MIN TEMP:  61; 6HR MAX TEMP:  82;

$$

AZZ503-504-507>509-301900-
SOUTHEAST ARIZONA

CITY           SKY/WX    TMP DP  RH WIND       PRES   REMARKS
TUCSON         SUNNY     74  30  19 S12G20    29.77F
6HR MIN TEMP:  54; 6HR MAX TEMP:  75;

DAVIS-MONTHAN  SUNNY     73  31  21 SE9       29.76F
6HR MIN TEMP:  53; 6HR MAX TEMP:  73;

RYAN FIELD     SUNNY     75  32  20 SW9       29.76F
NOGALES        SUNNY     70  30  22 S12       29.82F
6HR MIN TEMP:  43; 6HR MAX TEMP:  71;

SIERRA VISTA   SUNNY     69  18  14 SW9G22    29.84F
6HR MIN TEMP:  47; 6HR MAX TEMP:  69;

DOUGLAS        SUNNY     69  28  21 S9G22     29.84F
6HR MIN TEMP:  42; 6HR MAX TEMP:  70;

SAFFORD        MOSUNNY   71  29  21 VRB7G18   29.78F
6HR MIN TEMP:  46; 6HR MAX TEMP:  73;

$$

AZZ020-021-025-026-031-301900-
SOUTHWEST ARIZONA

CITY           SKY/WX    TMP DP  RH WIND       PRES   REMARKS
YUMA           SUNNY     74  43  32 W17       29.69F
6HR MIN TEMP:  63; 6HR MAX TEMP:  74;

$$

CAZ031-033-041-043-047-048-061-301900-
SOUTHERN CALIFORNIA

CITY           SKY/WX    TMP DP  RH WIND       PRES   REMARKS
DOWNTOWN L.A.  PTSUNNY   67  49  52 CALM      29.82S
6HR MIN TEMP:  57; 6HR MAX TEMP:  67;

L.A. AIRPORT   MOSUNNY   64  49  57 W13       29.84R
6HR MIN TEMP:  56; 6HR MAX TEMP:  64;

SAN DIEGO      PTSUNNY   59  48  67 SE6       29.87R
6HR MIN TEMP:  57; 6HR MAX TEMP:  60; 6HR PCP: TRACE;

BURBANK        SUNNY     64  46  52 SE8       29.81S
6HR MIN TEMP:  54; 6HR MAX TEMP:  64;

ONTARIO        PTSUNNY   59  48  67 W6        29.83S
6HR MIN TEMP:  52; 6HR MAX TEMP:  60; 6HR PCP:  0.01;

RIVERSIDE      CLOUDY    59  50  72 E5        29.83F
6HR MIN TEMP:  54; 6HR MAX TEMP:  59; 6HR PCP:  0.05;

PALM SPRINGS   MOSUNNY   71  44  37 NW21G29   29.72F
6HR MIN TEMP:  60; 6HR MAX TEMP:  71;

EL CENTRO NAS  SUNNY     72  37  28 W30G37    29.72F
IMPERIAL       SUNNY     76  40  27 W20G29    29.69F
6HR MIN TEMP:  62; 6HR MAX TEMP:  76;

BLYTHE         CLOUDY    71  41  33 NW8       29.68F
6HR MIN TEMP:  61; 6HR MAX TEMP:  72;

NEEDLES        CLOUDY    66  46  48 NE17      29.72R
6HR MIN TEMP:  64; 6HR MAX TEMP:  68; 6HR PCP: TRACE;

$$

NVZ020-UTZ003-301900-
SOUTHERN NEVADA-UTAH

CITY           SKY/WX    TMP DP  RH WIND       PRES   REMARKS
LAS VEGAS      CLOUDY    51  37  58 S5        29.75S
6HR MIN TEMP:  49; 6HR MAX TEMP:  52; 6HR PCP:  0.56;

SALT LAKE CITY PTSUNNY   59  32  36 N13       29.93F
6HR MIN TEMP:  43; 6HR MAX TEMP:  59;

$$

NMZ009-TXZ055-301900-
NEW MEXICO-WEST TEXAS

CITY           SKY/WX    TMP DP  RH WIND       PRES   REMARKS
ALBUQUERQUE    PTSUNNY   60  32  34 N8G18     29.86F
6HR MIN TEMP:  41; 6HR MAX TEMP:  60;

EL PASO        MOSUNNY   70  26  19 W15G23    29.85F
6HR MIN TEMP:  55; 6HR MAX TEMP:  71;

$$


........................KEY........................
SKY/WX - SKY CONDITION/WEATHER
TMP    - TEMPERATURE IN FAHRENHEIT
DP     - DEW POINT IN FAHRENHEIT
RH     - RELATIVE HUMIDITY IN PERCENT
WIND   - DIRECTION AND SPEED IN MILES PER HOUR (MPH)
VRB    - VARIABLE WIND DIRECTION
PRES   - MEAN SEA LEVEL PRESSURE IN INCHES OF MERCURY
         F - FALLING PRESSURE   R - RISING PRESSURE
         S - STEADY PRESSURE
VSB    - VISIBILITY IN MILES
HX     - HEAT INDEX IN FAHRENHEIT
WCI    - WIND CHILL INDEX IN FAHRENHEIT
TC     - TEMPERATURE IN CELSIUS WHICH IS ALSO KNOWN AS
         TEMPERATURE IN CENTIGRADE
AFB    - AIR FORCE BASE
         LUKE AFB IS LUKE AIR FORCE BASE
         DAVIS-MONTHAN IS DAVIS-MONTHAN AIR FORCE BASE
NAS    - NAVAL AIR STATION
         EL CENTRO NAS IS EL CENTRO NAVAL AIR STATION
N/A    - NOT AVAILABLE





USA.gov is the U.S. government's official web portal to all federal, state and local government web resources and services.